• In Hungary
  • List of Countries
  • For 7 days
  • Water Temperature
  • Satellite Maps
  • Weather Map
  • News
  • Weather Widgets
  • user-avatar
    Login

    Hourly Weather Olszana

    Today, 19 January, Friday

    Time Temperature Precipitation Wind Pressure Humidity
    00:00 -1°C° 0 mm 6 mps 714 mmHg 74%
    01:00 -1°C° 0 mm 6 mps 714 mmHg 75%
    02:00 -2°C° 0.1 mm 6 mps 714 mmHg 74%
    03:00 -2°C° 0.1 mm 6 mps 714 mmHg 73%
    04:00 -2°C° 0.1 mm 6 mps 714 mmHg 73%
    05:00 -2°C° 0 mm 6 mps 715 mmHg 73%
    06:00 -2°C° 0 mm 6 mps 716 mmHg 74%
    07:00 -3°C° 0 mm 6 mps 716 mmHg 75%
    08:00 -2°C° 0 mm 6 mps 717 mmHg 72%
    09:00 -2°C° 0 mm 6 mps 718 mmHg 70%
    10:00 -1°C° 0 mm 7 mps 719 mmHg 68%
    11:00 -1°C° 0 mm 6 mps 719 mmHg 66%
    12:00 -1°C° 0 mm 6 mps 720 mmHg 65%
    13:00 +1°C° 0 mm 5 mps 720 mmHg 64%
    14:00 0°C° 0 mm 4 mps 720 mmHg 68%
    15:00 0°C° 0 mm 3 mps 721 mmHg 73%
    16:00 -1°C° 0 mm 2 mps 721 mmHg 78%
    17:00 -1°C° 0 mm 2 mps 721 mmHg 80%
    18:00 -2°C° 0 mm 2 mps 722 mmHg 82%
    19:00 0°C° 0 mm 1 mps 722 mmHg 84%
    20:00 0°C° 0 mm 1 mps 722 mmHg 84%
    21:00 0°C° 0 mm 1 mps 722 mmHg 83%
    22:00 0°C° 0 mm 1 mps 723 mmHg 83%
    23:00 0°C° 0 mm 1 mps 723 mmHg 84%

    Tomorrow, 20 January, Saturday

    Time Temperature Precipitation Wind Pressure Humidity
    00:00 -1°C° 0 mm 1 mps 723 mmHg 85%
    01:00 -1°C° 0 mm 1 mps 723 mmHg 85%
    02:00 -1°C° 0 mm 1 mps 723 mmHg 86%
    03:00 -1°C° 0 mm 1 mps 723 mmHg 87%
    04:00 -1°C° 0 mm 1 mps 723 mmHg 87%
    05:00 -1°C° 0 mm 1 mps 723 mmHg 87%
    06:00 -1°C° 0 mm 1 mps 723 mmHg 87%
    07:00 -1°C° 0 mm 1 mps 723 mmHg 87%
    08:00 -2°C° 0 mm 2 mps 723 mmHg 82%
    09:00 -1°C° 0 mm 2 mps 723 mmHg 77%
    10:00 -1°C° 0 mm 2 mps 723 mmHg 73%
    11:00 +1°C° 0 mm 2 mps 723 mmHg 70%
    12:00 +1°C° 0 mm 2 mps 722 mmHg 68%
    13:00 +2°C° 0 mm 2 mps 722 mmHg 65%
    14:00 +1°C° 0.1 mm 2 mps 722 mmHg 70%
    15:00 +1°C° 0.1 mm 2 mps 721 mmHg 75%
    16:00 -1°C° 0.1 mm 2 mps 721 mmHg 80%
    17:00 -1°C° 0.1 mm 2 mps 721 mmHg 83%
    18:00 -2°C° 0.1 mm 2 mps 721 mmHg 86%
    19:00 -3°C° 0.1 mm 2 mps 721 mmHg 89%
    20:00 -3°C° 0 mm 2 mps 721 mmHg 89%
    21:00 -1°C° 0 mm 1 mps 721 mmHg 89%
    22:00 -2°C° 0 mm 1 mps 721 mmHg 90%
    23:00 -2°C° 0 mm 1 mps 721 mmHg 89%

    Day after tomorrow, 21 January, Sunday

    Time Temperature Precipitation Wind Pressure Humidity
    00:00 -2°C° 0 mm 1 mps 721 mmHg 88%
    01:00 -2°C° 0 mm 1 mps 721 mmHg 87%
    02:00 -2°C° 0.1 mm 1 mps 721 mmHg 87%
    03:00 -1°C° 0.1 mm 1 mps 721 mmHg 87%
    04:00 -1°C° 0.1 mm 1 mps 721 mmHg 88%
    05:00 -1°C° 0.3 mm 1 mps 721 mmHg 89%
    06:00 -1°C° 0.3 mm 1 mps 721 mmHg 91%
    07:00 -1°C° 0.3 mm 1 mps 721 mmHg 93%
    08:00 -1°C° 0.6 mm 1 mps 722 mmHg 92%
    09:00 0°C° 0.6 mm 1 mps 722 mmHg 92%
    10:00 -2°C° 0.6 mm 2 mps 723 mmHg 91%
    11:00 -2°C° 0.5 mm 2 mps 723 mmHg 91%
    12:00 -2°C° 0.5 mm 2 mps 724 mmHg 90%
    13:00 -2°C° 0.5 mm 2 mps 724 mmHg 89%
    14:00 -2°C° 0.4 mm 2 mps 725 mmHg 90%
    15:00 -2°C° 0.4 mm 2 mps 725 mmHg 90%
    16:00 -3°C° 0.4 mm 2 mps 726 mmHg 91%
    17:00 -3°C° 0.1 mm 2 mps 727 mmHg 91%
    18:00 -3°C° 0.1 mm 2 mps 727 mmHg 91%
    19:00 -3°C° 0.1 mm 2 mps 728 mmHg 91%
    20:00 -4°C° 0.1 mm 2 mps 728 mmHg 92%
    21:00 -4°C° 0.1 mm 2 mps 728 mmHg 93%
    22:00 -4°C° 0.1 mm 2 mps 729 mmHg 93%
    23:00 -4°C° 0 mm 2 mps 729 mmHg 93%

    22 January, Monday

    Time Temperature Precipitation Wind Pressure Humidity
    00:00 -2°C° 0 mm 1 mps 729 mmHg 93%
    01:00 -3°C° 0 mm 1 mps 729 mmHg 93%
    02:00 -3°C° 0 mm 1 mps 729 mmHg 93%
    03:00 -3°C° 0 mm 1 mps 729 mmHg 93%
    04:00 -4°C° 0 mm 1 mps 730 mmHg 93%
    05:00 -4°C° 0 mm 1 mps 730 mmHg 93%
    06:00 -4°C° 0 mm 1 mps 730 mmHg 93%
    07:00 -6°C° 0 mm 0 mps 730 mmHg 93%
    08:00 -5°C° 0 mm 0 mps 731 mmHg 89%
    09:00 -3°C° 0 mm 1 mps 731 mmHg 85%
    10:00 -2°C° 0 mm 1 mps 731 mmHg 81%
    11:00 -1°C° 0 mm 1 mps 731 mmHg 77%
    12:00 0°C° 0 mm 1 mps 731 mmHg 74%
    13:00 0°C° 0 mm 1 mps 731 mmHg 70%
    14:00 0°C° 0 mm 1 mps 731 mmHg 74%
    15:00 -1°C° 0 mm 1 mps 731 mmHg 79%
    16:00 -2°C° 0 mm 1 mps 731 mmHg 83%
    17:00 -3°C° 0 mm 1 mps 731 mmHg 84%
    18:00 -6°C° 0 mm 2 mps 731 mmHg 85%
    19:00 -6°C° 0 mm 2 mps 732 mmHg 85%
    20:00 -6°C° 0 mm 2 mps 731 mmHg 84%
    21:00 -6°C° 0 mm 2 mps 731 mmHg 82%
    22:00 -6°C° 0 mm 2 mps 731 mmHg 81%
    23:00 -6°C° 0 mm 2 mps 731 mmHg 79%

    23 January, Tuesday

    Time Temperature Precipitation Wind Pressure Humidity
    00:00 -6°C° 0 mm 2 mps 731 mmHg 77%
    01:00 -6°C° 0 mm 3 mps 730 mmHg 75%
    02:00 -6°C° 0.1 mm 3 mps 730 mmHg 76%
    03:00 -5°C° 0.1 mm 3 mps 729 mmHg 77%
    04:00 -5°C° 0.1 mm 4 mps 729 mmHg 79%
    05:00 -4°C° 0.5 mm 4 mps 729 mmHg 81%
    06:00 -3°C° 0.5 mm 4 mps 728 mmHg 84%
    07:00 -3°C° 0.5 mm 4 mps 728 mmHg 87%
    08:00 -2°C° 0.2 mm 4 mps 728 mmHg 87%
    09:00 -1°C° 0.2 mm 4 mps 728 mmHg 87%
    10:00 0°C° 0.2 mm 4 mps 728 mmHg 87%
    11:00 0°C° 0.2 mm 4 mps 728 mmHg 88%
    12:00 +1°C° 0.2 mm 4 mps 728 mmHg 89%
    13:00 +2°C° 0.2 mm 3 mps 727 mmHg 91%
    14:00 +2°C° 0.7 mm 3 mps 727 mmHg 92%
    15:00 +1°C° 0.7 mm 3 mps 728 mmHg 93%
    16:00 +1°C° 0.7 mm 3 mps 728 mmHg 94%
    17:00 +1°C° 0.6 mm 3 mps 728 mmHg 94%
    18:00 +2°C° 0.6 mm 2 mps 728 mmHg 94%
    19:00 +2°C° 0.6 mm 2 mps 728 mmHg 95%
    20:00 +2°C° 0.4 mm 2 mps 728 mmHg 95%
    21:00 +2°C° 0.4 mm 3 mps 728 mmHg 95%
    22:00 +2°C° 0.4 mm 3 mps 729 mmHg 95%
    23:00 +2°C° 0.4 mm 3 mps 729 mmHg 95%

    24 January, Wednesday

    Time Temperature Precipitation Wind Pressure Humidity
    00:00 +2°C° 0.4 mm 3 mps 729 mmHg 95%
    01:00 +2°C° 0.4 mm 3 mps 730 mmHg 95%
    02:00 +2°C° 0.5 mm 3 mps 730 mmHg 94%
    03:00 +1°C° 0.5 mm 4 mps 731 mmHg 94%
    04:00 0°C° 0.5 mm 4 mps 731 mmHg 94%
    05:00 0°C° 0.3 mm 4 mps 732 mmHg 93%
    06:00 0°C° 0.3 mm 4 mps 732 mmHg 92%
    07:00 0°C° 0.3 mm 4 mps 733 mmHg 91%
    08:00 0°C° 0.1 mm 4 mps 733 mmHg 91%
    09:00 0°C° 0.1 mm 4 mps 734 mmHg 91%
    10:00 0°C° 0.1 mm 4 mps 734 mmHg 91%
    11:00 0°C° 0.1 mm 4 mps 735 mmHg 90%
    12:00 +1°C° 0.1 mm 3 mps 735 mmHg 90%
    13:00 +1°C° 0.1 mm 3 mps 735 mmHg 90%
    14:00 +1°C° 0 mm 3 mps 735 mmHg 90%
    15:00 +1°C° 0 mm 2 mps 736 mmHg 91%
    16:00 +1°C° 0 mm 2 mps 736 mmHg 91%
    17:00 +2°C° 0 mm 1 mps 736 mmHg 92%
    18:00 +1°C° 0 mm 1 mps 737 mmHg 93%
    19:00 +1°C° 0 mm 1 mps 737 mmHg 94%
    20:00 -1°C° 0 mm 0 mps 737 mmHg 94%
    21:00 -1°C° 0 mm 0 mps 737 mmHg 94%
    22:00 -2°C° 0 mm 0 mps 737 mmHg 94%
    23:00 -2°C° 0 mm 0 mps 737 mmHg 93%
    Show more